Flag for Canada Weather past 2 weeks in Strathcona County, Alberta, Canada

Now
38 °F

Chilly.


Feels Like: 32 °F
Forecast: 32 / 38 °F
Wind: 9 mph from East

Location: Edmonton Municipal

Current Time: Apr 25, 2015 at 1:09:00 AM

Latest Report: Apr 25, 2015 at 12:00 AM


Visibility: N/A

Pressure: 29.90 "Hg

Humidity: 67%

Dew point: 28 °F

Location of Strathcona CountyLocation

Historic Weather in Strathcona County — Graph

°F

Strathcona County temperature yesterday

Maximum temperature yesterday: 43 °F (at 2:00 PM)
Minimum temperature yesterday: 33 °F (at 6:00 AM)
Average temperature yesterday: 39 °F

Past Weeks' High & Low Weather Summary

 TemperatureHumidityPressure
High72 °F (Apr 22, 3:00 PM)100% (Apr 24, 6:00 AM)30.34 "Hg (Apr 24, 6:00 AM)
Low29 °F (Apr 19, 7:00 AM)13% (Apr 10, 4:00 PM)29.29 "Hg (Apr 11, 12:00 PM)
Average46 °F42%29.88 "Hg
* Reported Midnight between Apr 9 and Apr 10 — Midnight between Apr 24 and Apr 25, Strathcona County, Weather by CustomWeather, © 2015

Note: Actual official high and low records may vary slightly from our data, if they occured in-between our weather recording intervals... More about our weather records

Advertising

Strathcona County weather history for previous 24 hours

 ConditionsComfort  
Time TempWeatherWind HumidityBarometerVisibility
12:00 AM
Sat, Apr 25
38 °FChilly.9 mph67%29.90 "HgN/A
11:00 PM
Fri, Apr 24
38 °FChilly.9 mph66%29.89 "HgN/A
10:00 PM39 °FChilly.12 mph65%29.89 "HgN/A
9:00 PM39 °FChilly.13 mph71%29.87 "HgN/A
8:00 PM39 °FChilly.13 mph72%29.85 "HgN/A
7:00 PM39 °FChilly.14 mph78%29.85 "HgN/A
5:00 PM41 °FQuite cool.14 mph72%29.82 "HgN/A
4:00 PM43 °FQuite cool.10 mph65%29.80 "HgN/A
3:00 PM42 °FQuite cool.12 mph72%29.80 "HgN/A
2:00 PM43 °FQuite cool.12 mph71%29.80 "HgN/A
1:00 PM43 °FQuite cool.13 mph72%29.79 "HgN/A
12:00 PM42 °FQuite cool.13 mph75%29.80 "HgN/A
11:00 AM38 °FChilly.9 mph84%29.79 "HgN/A
10:00 AM39 °FChilly.8 mph83%29.79 "HgN/A
9:00 AM36 °FChilly.7 mph93%29.78 "HgN/A
8:00 AM37 °FChilly.5 mph90%29.79 "HgN/A
7:00 AM36 °FChilly.7 mph93%29.78 "HgN/A
6:00 AM33 °FChilly.6 mph100%29.77 "HgN/A
5:00 AM35 °FChilly.5 mph87%29.77 "HgN/A
4:00 AM36 °FChilly.6 mph91%29.76 "HgN/A
3:00 AM36 °FChilly.5 mph84%29.76 "HgN/A
2:00 AM38 °FChilly.5 mph88%29.76 "HgN/A
1:00 AM37 °FChilly.5 mph88%29.76 "HgN/A
Weather by CustomWeather, © 2015

See weather overviewHow to use our weather pages